Погода в Хатиодзи

Япония     35°39′31″N   139°15′29″E
темп.,
°C
ветер,
м/с
пор.,
м/с
влажн.,
%
обл.,
%
осадки,
мм/ч
давл.,
гПа
погр.,
м
8 мая, сб
сб800:00+12з228899 0.0 100741
03:00+11з2283100 0.0 100631
06:00+14зюз1174100 0.0 100659
09:00+20юв225384 0.0 1007570
12:00+23юв4446100 0.0 1006952
15:00+22вюв2248100 0.0 1005810
18:00+19св1160100 0.0 100517
21:00+17зсз1166100 0.0 100618
9 мая, вс
вс900:00+16з2270100 0.0 100462
03:00+14з2266100 0.0 100334
06:00+14з2261100 0.0 100467
09:00+22вюв12401 0.0 1002799
12:00+25вюв55320 0.0 10001669
15:00+26всв33315 0.0 9991780
18:00+21сз35372 0.0 1001212
21:00+15ссз124926 0.0 1006180
10 мая, пн
пн1000:00+13ююз12570 0.0 1007178
03:00+12зюз236822 0.0 1008160
06:00+13зюз126222 0.0 1010167
09:00+19юв225212 0.0 10101409
12:00+22вюв44388 0.0 10081840
15:00+22юв53418 0.0 10081563
18:00+19ю215661 0.0 1009208
21:00+15сз3460100 0.0 1011140
11 мая, вт
вт1100:00+14ссз3364100 0.0 1011145
03:00+12с2470100 0.0 1012168
06:00+13ссв1364100 0.0 1015325
09:00+17в225297 0.0 10151324
12:00+17юв125097 0.0 10151284
15:00+18ююв4352100 0.0 10141214
18:00+16ю3369100 0.0 1016224
21:00+13з2272100 0.0 1018105
12 мая, ср
ср1200:00+11зсз226446 0.0 102049
03:00+11з2264100 0.1 102039
06:00+13сз1168100 0.0 1021109
09:00+16юв235647 0.0 10211084
12:00+18ююв445699 0.1 10201306
15:00+18ю5558100 0.1 10191062
18:00+16ю5770100 0.0 1020582
21:00+13ю3486100 0.0 1021254